EW9036 Weather Reports


time (UTC)temp
F
wind
direction
speed
knots
gust
knots
rain 1hr
in
rain 24hr
in
rain mn
in
humidity
%
barometer
mb
20260507060040 53 277 0.9 3.5 0.00 0.16 0.01 87 1006.2
20260507054540 54 0 0.0 3.5 0.00 0.16 0.01 88 1006.2
20260507053040 54 0 0.9 5.2 0.00 0.16 0.01 89 1006.5
20260507051541 55 86 0.0 3.5 0.01 0.16 0.01 90 1006.6
20260507050100 55 258 1.7 6.1 0.01 0.16 0.01 91 1006.4
20260507044549 55 261 0.0 3.5 0.01 0.16 0.01 92 1006.4
20260507043044 56 232 0.9 5.2 0.01 0.16 0.01 91 1006.3
20260507041537 56 0 0.9 6.1 0.00 0.15 0.00 91 1006.4
20260507040045 57 0 0.9 7.0 0.00 0.15 0.00 91 1006.2
20260507034541 57 261 0.9 7.8 0.00 0.15 0.15 92 1006.5
20260507033042 58 279 0.9 7.0 0.00 0.15 0.15 94 1005.8
20260507031537 58 275 0.9 6.1 0.00 0.15 0.15 94 1005.7
20260507030038 59 281 0.9 2.6 0.00 0.15 0.15 95 1005.6
20260507024546 59 271 0.9 4.3 0.00 0.15 0.15 94 1005.2
20260507023040 58 157 0.9 7.8 0.00 0.15 0.15 95 1005.3
20260507021550 58 0 0.9 7.8 0.00 0.15 0.15 94 1005.4
20260507020040 58 0 0.0 4.3 0.00 0.15 0.15 94 1005.3
20260507014537 58 223 0.9 6.1 0.00 0.15 0.15 95 1005.3
20260507013038 58 0 0.9 4.3 0.00 0.15 0.15 95 1005.3
20260507011545 58 174 0.9 6.1 0.00 0.15 0.15 95 1005.3
20260507010045 58 198 0.9 5.2 0.00 0.15 0.15 95 1005.4
20260507004540 58 208 0.0 3.5 0.00 0.15 0.15 95 1005.5
20260507003040 58 159 0.0 6.1 0.01 0.15 0.15 95 1005.4
20260507001542 58 129 1.7 7.8 0.01 0.15 0.15 94 1005.3
20260507000042 58 0 0.9 5.2 0.02 0.15 0.15 94 1005.2
20260506234550 58 0 0.9 4.3 0.05 0.15 0.15 95 1005.1
20260506233038 59 142 0.0 5.2 0.04 0.14 0.14 94 1005.2
20260506231539 59 0 0.0 6.1 0.04 0.14 0.14 94 1005.0
20260506230037 59 175 0.9 6.1 0.03 0.13 0.13 94 1005.0
20260506224536 59 0 0.0 4.3 0.01 0.10 0.10 94 1005.3
20260506223047 59 155 1.7 5.2 0.01 0.10 0.10 93 1005.3
20260506221539 59 0 0.0 5.2 0.01 0.10 0.10 93 1005.3
20260506220038 60 184 0.0 3.5 0.01 0.10 0.10 93 1005.5
20260506214540 59 15 0.9 7.0 0.01 0.09 0.09 92 1005.5
20260506213042 59 188 0.0 5.2 0.01 0.09 0.09 92 1005.8
20260506211543 59 0 0.9 6.1 0.01 0.09 0.09 92 1005.9
20260506210041 59 226 0.9 8.7 0.02 0.09 0.09 92 1005.9
20260506204550 59 63 1.7 7.0 0.02 0.08 0.08 92 1006.1
20260506203037 60 212 0.9 13.0 0.02 0.08 0.08 92 1006.2
20260506201539 60 256 1.7 7.0 0.04 0.08 0.08 91 1006.1
20260506200057 60 102 1.7 8.7 0.05 0.07 0.07 90 1006.1
20260506194548 61 0 1.7 5.2 0.05 0.06 0.06 90 1006.2
20260506193038 62 0 0.9 7.0 0.06 0.06 0.06 88 1006.2
20260506191538 63 0 0.0 2.6 0.03 0.03 0.03 86 1006.1
20260506190039 64 140 0.0 7.0 0.02 0.02 0.02 83 1006.1
20260506184536 65 190 2.6 13.9 0.01 0.01 0.01 78 1006.4
20260506183057 67 193 0.9 7.0 0.00 0.00 0.00 76 1006.7
20260506181544 69 227 3.5 11.3 0.00 0.00 0.00 68 1006.5
20260506180041 70 273 2.6 23.5 0.00 0.00 0.00 63 1006.6
20260506174538 71 191 5.2 17.4 0.00 0.00 0.00 60 1006.5
20260506173037 72 177 5.2 15.6 0.00 0.00 0.00 58 1006.6
20260506171546 73 238 2.6 12.2 0.00 0.00 0.00 59 1006.8
20260506170046 74 184 1.7 13.9 0.00 0.00 0.00 57 1006.8
20260506164547 72 217 0.9 9.6 0.00 0.00 0.00 62 1006.9
20260506163038 71 216 3.5 10.4 0.00 0.00 0.00 61 1007.2
20260506161545 71 297 1.7 12.2 0.00 0.00 0.00 62 1007.3
20260506160044 71 313 1.7 8.7 0.00 0.00 0.00 64 1007.7
20260506154537 70 179 0.9 7.0 0.00 0.00 0.00 65 1007.9
20260506153040 71 214 1.7 9.6 0.00 0.00 0.00 65 1008.0
20260506151558 71 284 2.6 12.2 0.00 0.00 0.00 62 1008.2
20260506150039 71 248 0.9 8.7 0.00 0.00 0.00 67 1008.1
20260506144538 69 200 2.6 13.9 0.00 0.00 0.00 68 1008.5
20260506143045 69 201 1.7 8.7 0.00 0.00 0.00 68 1008.4
20260506141539 68 219 0.9 8.7 0.00 0.00 0.00 70 1008.3
20260506140040 68 298 2.6 9.6 0.00 0.00 0.00 70 1008.3
20260506134538 68 127 2.6 10.4 0.00 0.00 0.00 70 1008.5
20260506133040 67 238 1.7 13.0 0.00 0.00 0.00 72 1008.7
20260506131536 66 221 2.6 10.4 0.00 0.00 0.00 74 1009.1
20260506130049 65 239 2.6 12.2 0.00 0.00 0.00 74 1009.0
20260506124540 65 200 3.5 10.4 0.00 0.00 0.00 74 1009.1
20260506123039 64 246 0.9 8.7 0.00 0.00 0.00 78 1008.8
20260506121540 63 122 1.7 7.8 0.00 0.00 0.00 79 1009.1
20260506120041 62 0 2.6 7.0 0.00 0.00 0.00 79 1008.9
20260506114545 61 194 0.9 7.0 0.00 0.00 0.00 82 1009.2
20260506113041 61 148 1.7 7.0 0.00 0.00 0.00 81 1009.4
20260506111541 60 199 0.9 3.5 0.00 0.00 0.00 82 1009.6
20260506110046 60 195 0.9 8.7 0.00 0.00 0.00 83 1009.4
20260506104536 59 0 0.9 4.3 0.00 0.00 0.00 85 1009.4
20260506103036 58 188 0.0 2.6 0.00 0.00 0.00 85 1009.3
20260506101549 58 0 0.0 4.3 0.00 0.00 0.00 85 1009.4
20260506100039 58 0 0.0 1.7 0.00 0.00 0.00 84 1009.4
20260506094547 58 199 0.9 6.1 0.00 0.00 0.00 84 1009.3
20260506093037 58 0 0.0 2.6 0.00 0.00 0.00 83 1009.0
20260506091536 58 0 0.0 3.5 0.00 0.00 0.00 82 1009.3
20260506090044 59 0 0.0 3.5 0.00 0.00 0.00 82 1009.2
20260506084537 59 138 0.0 2.6 0.00 0.00 0.00 81 1009.4
20260506083041 59 215 0.9 7.0 0.00 0.00 0.00 80 1009.4
20260506081541 60 197 0.0 2.6 0.00 0.00 0.00 79 1009.4
20260506073046 61 201 0.0 5.2 0.00 0.00 0.00 76 1009.1
20260506071557 62 159 0.9 7.0 0.00 0.00 0.00 75 1009.0
20260506061536 63 179 1.7 7.0 0.00 0.00 0.00 72 1008.8